Back to catalog

ANIK C1 R/B

PAM-D

AliveHEO
NORAD 15644·ROCKET BODY·🇺🇸 United States

Launched Apr 12, 1985 from Cape Canaveral Space Force Station

Loading…

Next Passes (next 24 hours)

TLE

FreshSource: Space-Track

Epoch: Sep 12, 2026, 17:27 UTC

1 15644U 85028D   26255.72735665  .00001262  00000-0  12163-2 0  9990
2 15644  23.0792 101.8649 6826031  48.2117 352.8216  2.81831039389230

Track ANIK C1 R/B in real time with AllMySat

Download on the App Store